Tracking 28091 objects as of 29-Sep-2023
HD Live streaming from Space Station
objects crossing your sky now

STARLINK-5819

Track STARLINK-5819 now!
10-day predictions
STARLINK-5819 is classified as:


NORAD ID: 55780
Int'l Code: 2023-028AR
Perigee: 577.1 km
Apogee: 581.2 km
Inclination: 70.0 °
Period: 96.1 minutes
Semi major axis: 6950 km
RCS: Unknown
Launch date: March 3, 2023
Source: United States (US)
Launch site: AIR FORCE WESTERN TEST RANGE (AFWTR)
Your satellite tracking list
Your tracking list is empty




NASA's NSSDC Master Catalog

Two Line Element Set (TLE):
1 55780U 23028AR  23272.55167097  .00000015  00000-0  90737-5 0  9993
2 55780  70.0001 313.6829 0002926 267.5486  92.5338 14.98335186 32906
Source of the keplerian elements: AFSPC